Lebanon Springfield-George Hoerter Field (6I2)

 

Airport Diagram
No Airport Diagram Available
Current Weather/Forecast (LIFR Conditions)
METAR K6I2 251550Z AUTO 01006KT 1SM +RA OVC003 03/03 A2995 RMK AO2
TAF

Airport Information

All Charts
General
Chart Name View
TAKEOFF MINIMUMS
ALTERNATE MINIMUMS
TAKEOFF MINIMUMS
ALTERNATE MINIMUMS

Approaches
Chart Name Download
RNAV (GPS) RWY 11
RNAV (GPS) RWY 29
VOR/DME RWY 11
RNAV (GPS) RWY 11
RNAV (GPS) RWY 29
VOR/DME RWY 11


Airport Statistics
Departures Arrivals Local
All Collected Stats since June 2016: 4 4 0
2021 Stats: 0 0 0
January Stats: 0 0 0

Inbound Traffic (Arrivals) - 0

No inbound traffic.


Outbound Traffic (Departures) - 0

No outbound traffic.


Local Traffic (Pattern) - 0

No local traffic.